timestamp,gas_concentrations,,corrected_fluxes_and_quality_flags,,,,,,,,,,storage_terms,,,turbulence,,,footprint,,
ISOdate,CO2_1_1_1,H2O_1_1_1,Tau_1_1_1,QcTau_1_1_1,H_1_1_1,QcH_1_1_1,LE_1_1_1, QcLE_1_1_1,Fc_1_1_1, QcFc_1_1_1,E_1_1_1, QcE_1_1_1,Sa_1_1_1,Sw_1_1_1,Sc_1_1_1,ustar_1_1_1,MO_length_1_1_1,ZL_1_1_1,Fetchmax_1_1_1,Fetch70_1_1_1,Fetch90_1_1_1
yyyymmddHHMM,[µmol+1mol_a-1],[mmol+1mol_a-1],[kg+1m-1s-2],[#],[W+1m-2],[#],[W+1m-2],[#],[µmol+1s-1m-2],[#],[mmol+1s-1m-2],[#],[W+1m-2],[W+1m-2],[µmol+1s-1m-2],[m+1s-1],[m],[#],[m],[m],[m]
201803210030,415.80066789821882,2.4553195785772353,0.20351901446670609,0,-2.9105230208937409,2,2.5050737514882200,0,-0.51634372038906218,2,5.53468470396671283E-002,0,-9999.,-9999.,-9999.,0.40646879043513817,1936.3585110318943,1.11549591033580156E-002,94.049455036520371,171.95239934197986,257.61602804393362
201803210100,415.70728991606222,2.4592743061905549,0.33368207828785812,0,-4.9699349125475170,2,4.5720130704720443,1,0.16290314320760835,2,0.10095631327233674,1,-14.529756688103577,0.14859230061603079,-7.74729752278022488E-002,0.51985181027035743,2372.4431096986496,9.10453865540474840E-003,117.31421849394027,214.48780685788262,321.34181946882683
201803210130,415.61657588961066,2.5025373595466140,0.20564074322998610,0,4.2075237501021778,1,2.2696277402680147,0,-0.37024497748548557,0,5.00882280665898363E-002,0,-14.493450832209303,1.6305237719779726,-7.54510780028517514E-002,0.40759479575331709,-1350.9781916533266,-1.59884150117670897E-002,102.74279253643248,187.84659288960896,281.42842627955446
201803210200,415.40706837868856,2.4664801842207296,0.38030819251299408,0,7.7622314876904737,1,8.0724597225036625,0,0.18154612859020339,1,0.17805697454478428,0,-13.522219282062743,-1.3626949233939287,-0.17464639945574825,0.55367435412279764,-1835.7150555760804,-1.17665320303327429E-002,112.55242243450643,205.78172496427797,308.29852233637394
201803210230,415.22611846949161,2.4192286665109988,0.21860273100870076,0,-1.9224219630239698,1,1.7482507820540623,0,-0.68692295460401231,0,3.85416812210226320E-002,0,-13.453510548754480,-1.7904908959156414,-0.15116165839869591,0.41932316577207812,3219.8529822178980,6.70838082337582315E-003,107.12606423564824,195.86061152858218,293.43488654613304
201803210300,415.26030889034746,2.4136350859938576,0.14531914003478011,0,2.3911661328793681,2,1.0839497192890681,0,-0.78315053231988663,1,2.38875258712630996E-002,0,-9.8282606916463191,-0.21238078001664293,2.86082832708689921E-002,0.34160953010441686,-1399.7434441421553,-1.54313992970602880E-002,103.47871289785527,189.19209002005090,283.44422616263489
201803210330,415.14825244762108,2.3961448839507007,6.81550391360106617E-002,0,-8.5520285317806231,1,-0.81776811518944803,0,-2.33079870125408317E-002,1,-1.80162002113833652E-002,0,-7.7026550423773914,-0.66519773739536403,-9.38913956150059237E-002,0.23378428291313330,125.45943474222773,0.17216720324286439,92.607291357224881,169.31566418171315,253.66571829779994
201803210400,415.12662735527505,2.3757927126052265,6.28761982894558424E-002,0,-2.0476499170200735,1,0.61277153127539852,0,-0.33148723733618080,1,1.34957001578247388E-002,0,-8.1444792344304933,-0.77531538303269454,-1.81435581832567784E-002,0.22439853933589332,463.39271321579628,4.66127312406424202E-002,105.18473636841169,192.31124503250678,288.11728875575471
201803210430,415.18463741467855,2.3517356830409986,5.80250526406469389E-002,0,-7.0730137107120337,0,0.56746513268009491,0,6.87121106094175094E-002,0,1.24939924942095038E-002,0,-8.0734954007820434,-0.91793178924532326,4.87341928362672108E-002,0.21542678225309192,118.70092281521667,0.18196994166275365,100.73620851535523,184.17791733192996,275.93208177393643
201803210500,415.33728354470963,2.3260450986621994,8.00614673557231149E-002,0,-8.1583539811719099,0,0.88704879375270529,1,-0.57205773661876669,1,1.95263512873774282E-002,1,-5.3057973762039659,-0.98139606714802508,0.12836000250369731,0.25292680547452295,166.56361668835632,0.12968018123918390,118.04017288019396,215.81508300723067,323.33032100193117
201803210530,415.45217701972945,2.3091282341923471,3.65644318265826371E-002,0,-4.2508056470353068,0,0.46731176588156476,0,-0.33394008927712959,0,1.02850468735395800E-002,0,-4.4441541104205795,-0.64687289292564099,9.66927712038211512E-002,0.17085738246669174,98.552304413236996,0.21917295722918489,83.292274084138583,695.00000000000000,3174.0000000000000
201803210600,415.51719494803280,2.2917365491099604,4.40359040542622412E-002,0,-7.0279666932184233,0,-0.34947911753589628,0,-0.10921488285172976,0,-7.68972106159609200E-003,0,-6.6243935644852971,-0.66592298408424822,5.47778301458797107E-002,0.18740010734949680,78.656588502809797,0.27461145227813177,85.057057814080437,725.00000000000000,3365.0000000000000
201803210630,415.57241606331633,2.2667424544050441,4.54757624397515020E-002,0,-10.724125649773281,0,-0.74747074814514658,0,-0.14176909422109801,0,-1.64426733740252705E-002,0,-6.6890618074885175,-0.95833111856242881,4.65759349584487017E-002,0.19033206626825039,54.007309470657603,0.39994586310090807,79.392612718098519,679.00000000000000,3163.0000000000000
201803210700,415.80418387356036,2.2382640734967025,1.80668313034738209E-002,0,-3.5903812231112577,0,-0.33282152918898938,0,-1.54209898913970633E-002,1,-7.32043934518928664E-003,0,-3.1624667535903357,-1.0928079977508303,0.19561737311363872,0.11992553749685303,40.358214013597141,0.53520703351051946,111.53910588449486,987.00000000000000,4721.0000000000000
201803210730,415.76742068601106,2.2061390255683673,2.06906741285691441E-002,1,1.0851624356438252,2,-3.0378850616918354,2,-0.81106283316715078,2,-6.68094123393287720E-002,2,-3.5828231395079007,-1.2337857005439588,-3.10509878586263839E-002,0.12829253333035623,-163.49052850132037,-0.13211774527859305,164.85745474254034,621.00000000000000,1587.0000000000000
201803210800,414.66129025026578,2.1415004864475167,2.58483803174794219E-002,0,-7.0318544962038638,0,1.1629524688275501,1,0.61508459303672858,0,2.55743589684584265E-002,1,-1.4187071096013630,-2.4832377294800336,-0.93449267118305757,0.14337445115345768,35.215410070212066,0.61336783973079334,228.50310268783525,2210.0000000000000,-9999.
201803210830,414.72823758294220,2.1237697985875772,1.49462983832613517E-002,1,2.8110717729209598,2,-0.19906446563988034,2,-0.66823149589072683,1,-4.37738125058101737E-003,2,-1.3368632537337248,-0.68128470585939094,5.65661947874219820E-002,0.10901679337742999,-38.722987805334867,-0.55780819673796367,233.76414033712715,730.00000000000000,1643.0000000000000
201803210900,415.83035379780887,2.1251627509095057,2.99471607274511258E-003,0,-1.6466958677700039,1,-0.17546879070214946,1,-7.80242503967232270E-003,1,-3.85782224032442909E-003,1,-4.7278969066012229,5.35752612690942875E-002,0.93196106168698756,4.87788071830256298E-002,5.9219051029610794,3.6474748623039464,1385.3591501317667,-9999.,-9999.
201803210930,416.14559799313827,2.1203714058889913,2.58398423750890241E-003,2,-0.90789119100690574,1,-0.18894361366624057,0,-7.80192035864474415E-002,2,-4.15342576059945894E-003,0,-4.1151738260415653,-0.18444182606035114,0.26676159263880694,4.52944480540311070E-002,8.6000895937031352,2.5116017414301379,696.22795371944073,6267.0000000000000,-9999.
201803211000,416.26300523453943,2.1012364889910278,1.45571612996182919E-003,1,-1.3111019626841729,1,1.15674214022643274E-002,2,-4.61275038756617517E-002,1,2.54274479374077839E-004,2,-0.48481126371927330,-0.73689932730081431,9.93899976024462256E-002,3.39899886785040226E-002,2.5171923942843777,8.5809889021775589,709.02915802298219,5042.0000000000000,-9999.
201803211030,416.05731860922384,2.0997441029816595,3.35061005091755485E-003,0,-8.88744004685703415E-002,1,-0.10269384873664093,0,-1.04820882289318532E-002,1,-2.25747392502047848E-003,0,0.73143611791388330,-5.74799471602489495E-002,-0.17414842704482117,5.15634111371915879E-002,129.66714911145851,0.16658035707589439,185.13096412845138,1600.0000000000000,7510.0000000000000
201803211100,415.52235401956813,2.0964682200479374,1.78862531058970853E-003,1,-0.21376555112209256,1,-6.20004435444786658E-002,1,-5.60387012536718576E-003,2,-1.36278915542636480E-003,1,-2.6887413956073929,-0.12624769950166240,-0.45316254620821189,3.76644282373427078E-002,21.011778364986171,1.0279948524487599,723.03667987204699,7878.0000000000000,-9999.
201803211130,415.07407826805189,2.1222875166203736,1.13458443387375865E-003,2,-0.82905432791498246,0,-0.36014496815311209,0,-1.49739639738906520E-002,2,-7.91667135607189952E-003,0,1.8991885766208390,0.99485762981662429,-0.37968814854454125,2.99996241811072289E-002,2.7379783774678699,7.8890323523942723,1242.9737008592808,9415.0000000000000,-9999.
201803211200,414.57292135243915,2.1620492063123691,1.50682863054399916E-003,1,-1.0756744991794662,0,-0.22523848357136234,0,5.69097238265991318E-002,0,-4.95183966582090143E-003,0,3.5502635481265781,1.5312292051821113,-0.42430004655893389,3.45799072512018926E-002,3.2322050433654010,6.6827443526014321,2445.2206667357450,-9999.,-9999.
201803211230,414.85738688543199,2.1477059365726410,4.77048204319081501E-003,1,-2.8226940672742611,0,-0.40953245716483438,0,0.27053803124534181,0,-9.00183186464629907E-003,0,-4.9278509817768521,-0.55304501551592566,0.24109296582428782,6.14956050760120596E-002,6.9289087777901663,3.1173739895719739,815.76690761466557,7146.0000000000000,-9999.
201803211300,416.00996657377573,2.1188250053581954,2.31612898463830512E-003,0,-0.16478084323421113,2,0.11066954845257493,2,-4.50673368893427864E-002,2,2.43215861808447360E-003,2,-4.7767710708952764,-1.1150147308841207,0.97792180911158577,4.28255354883355505E-002,40.096715731251720,0.53869748696561648,1043.1862617214888,-9999.,-9999.
201803211330,416.47012221838349,2.1382810399531351,2.33420022074914725E-002,1,6.6928340168621530,1,-0.59107989898225266,0,1.3217250829793596,1,-1.29909870612521516E-002,0,1.9516291156665888,0.75098708649962920,0.39037217371282773,0.13596327540586356,-31.594725578008120,-0.68365841465117627,67.847925081983732,222.00000000000000,517.00000000000000
201803211400,416.17725528738561,2.2000036738549262,6.49410710654035328E-002,1,45.646293077359310,1,1.2852403776300714,2,-0.22785360417401179,1,2.82635965263001443E-002,2,14.938945533671202,2.3759997225743614,-0.24792215312473259,0.22702930069601435,-21.570358950252366,-1.0013741565365692,105.49008708521016,192.86952352943058,288.95369167580833
201803211430,415.67264424357188,2.2757519178877970,0.20007962371297072,1,115.40313429564323,0,3.3900873931882862,0,0.76419179021710093,0,7.46337474638573140E-002,0,28.936985448800506,2.8990335377395557,-0.42516918022462796,0.39943841604396446,-46.460907374365512,-0.46490697708408624,114.76793211398731,209.83238325893993,314.36714658836058
201803211500,415.44940037849591,2.3137372749240148,0.25216385158945476,1,144.65494213869997,0,7.8017057213781067,0,-1.4374323193755663,0,0.17199844887827406,0,36.454263517460404,1.4433178079984772,-0.18700803022598286,0.44973334299187018,-52.898211952951158,-0.40833138214976944,111.31520512586678,203.51969713386254,304.90959245097287
201803211530,416.11731073985811,2.2760833854028717,0.18962660099203116,1,271.25743103471683,0,56.396274486185419,0,-3.5578600272643577,0,1.2454651849285148,0,44.172854534025632,-1.4183799602335234,0.55562541127441756,0.39135294847950736,-18.586733905113931,-1.1621191818997851,90.447490061582997,165.36685857998663,247.74968793982129
201803211600,416.93290978370567,2.0726862373683730,8.31674205699477059E-002,1,342.58887209599840,0,17.269472721407208,0,-7.7963612799085844,0,0.38176215999155344,0,25.470389000972240,-7.6229516300594353,0.67572317565121032,0.25969571727818402,-4.2997788288674217,-5.0235141991453371,62.418080899046181,114.12015910932269,170.97279376146528
201803211630,416.88958332006223,1.9217172737243571,0.28089508648945155,1,210.37026865534287,0,33.520414946832126,0,-3.6121986885963207,0,0.74148755478955586,0,16.467154205127933,-5.6394169364546780,-3.58009254667466595E-002,0.47788498497079396,-43.628512504356273,-0.49508907730565554,103.70973562470940,189.61447324565989,284.07703320289818
201803211700,416.66664504573089,1.8666117599422125,0.23185224677070354,1,274.33364673183763,0,38.890058804663241,0,-3.5243569970321502,0,0.86079169024830393,0,15.500591461138008,-2.0524191531686435,-0.18378713342671787,0.43466804256012592,-25.176691581361116,-0.85793639447015269,101.92441266445387,186.35033347475897,279.18675702194560
201803211730,416.59521566696941,1.8125904664856785,8.58402468602465774E-002,0,218.48993248308753,0,27.288668684426266,0,-0.76191533513132015,0,0.60423582237104523,0,9.6115475787715532,-2.0080841239491503,-5.87919571159247409E-002,0.26469016783506494,-7.1376083133019836,-3.0262237785933452,63.981485635531385,116.97856158998412,175.25520154662465
201803211800,416.83681555125963,1.8145758333511093,0.16145253613508415,1,335.45596719934736,0,35.011177230948455,1,-2.6467310904751535,0,0.77566005568666030,1,14.006401141948269,7.35937484878756709E-002,0.19840910124330374,0.36341514113754964,-12.031533808212231,-1.7952823259538804,80.143840066785486,146.52850020887828,219.52639430155503
201803211830,416.67167798242252,1.8828241457641921,7.78130517990684861E-002,0,253.96190608780853,0,16.551524797960205,0,-1.5119593754444161,0,0.36681375032746311,0,8.3031692554799150,2.5255005336527492,-0.13542817698356921,0.25247203170658855,-5.3283519580163876,-4.0537862682856902,68.266881311514695,124.81363164253185,186.99356422203599
201803211900,416.67363802655439,1.9045155109215759,0.50491647152264574,1,412.05460505155895,1,29.106864831633295,0,-1.0297416498607390,1,0.64545164414805956,0,15.104921804499869,0.80024894315959372,1.60351252338111435E-003,0.64391259814683366,-54.478039333778334,-0.39649004009964856,112.01984416330367,204.80800202739167,306.83970794136781
201803211930,417.48542115721091,1.8608987487232223,0.20007390476586254,1,369.05705927048132,0,49.072225158597071,1,0.99497629777220453,0,1.0887732419350420,1,13.488115886133405,-1.6048766763923998,0.66271980870066827,0.40575799070758528,-15.219306457700114,-1.4192499546568769,84.695658661958362,154.85067632893646,231.99453062844407
201803212000,416.94072481004503,1.8402284340692374,0.33289963354100949,1,284.48705052085199,0,21.537696635291773,0,-1.7565662556054917,0,0.47785681946418601,0,-0.18228549253134702,-0.76062826156423069,-0.44471150551011557,0.52337121215166515,-42.370952604779035,-0.50978320458067139,105.24257119980925,192.41698554977492,288.27570731906746
201803212030,416.86318728510486,1.8238111399068329,3.93011174589713436E-002,0,178.02434449516238,0,11.243549633818416,1,-1.1041123224651592,0,0.24951396023002245,1,5.3617086394781097,-0.60356510619671255,-6.32595190768261012E-002,0.17989092216191310,-2.7496980096607717,-7.8554080935836215,49.275700873418302,143.00000000000000,306.00000000000000
201803212100,416.44375615386485,1.8368882431041433,0.12741580636366798,0,157.00278095796426,0,7.8109505863634991,0,-1.5801586371886192,0,0.17338165802264599,0,6.2191807273205928,0.48019750016896079,-0.34187572683987533,0.32405796471981480,-18.226666010689446,-1.1850768531848987,82.995543423092158,151.74232344834414,227.33765159726195
201803212130,416.58264805361188,1.8297386696267881,4.10555107523619955E-002,1,150.07073418146001,0,16.830426787593534,1,-7.05565928768470130E-002,0,0.37359788472185795,1,0.57761836017789325,-0.26253444548495880,0.11321197231401570,0.18394681486778386,-3.4878690047403071,-6.1928931306318518,44.143039316659134,130.00000000000000,280.00000000000000
201803212200,416.41266275083274,1.8536569576346320,0.13470134043953186,0,123.93510223593698,0,10.225556488493169,0,-0.21504149888669311,0,0.22703251177973824,0,5.2902855503816308,0.87755904103367344,-0.13847096818032428,0.33329477695960336,-25.126678297757230,-0.85964407010090083,82.458524497491538,150.76048157894445,225.86667356188758
201803212230,416.59047543318394,1.8736557448163274,5.27821760818085392E-002,1,111.20376212063029,0,5.9975464441969333,0,0.68176522560818142,0,0.13315872947083079,0,-0.29264391182941868,0.73390271190893963,0.14487504705694534,0.20861526675342121,-6.8676724348917144,-3.1451703913919387,62.413722827391936,114.11219116440306,170.96085632802604
201803212300,416.23731149155839,1.8749983534131354,0.20753862660305322,1,65.136187977745180,0,6.6220842024775637,1,0.36624790087748016,0,0.14699115936613916,1,-5.7411662866348943,4.93411734253262485E-002,-0.28809314317426710,0.41341779516558036,-91.271620094189714,-0.23665625719921940,107.58908495212765,196.70716107118994,294.70317202248333
201803212330,416.66587684556447,2.0800126159351566,0.10728129577993013,0,22.060089717036860,0,-5.0209109271490933,1,-0.59246306561788642,0,-0.11143504957406944,1,-3.3046975492668005,7.5408776351630067,0.34985990268334971,0.29713805486006561,-100.07882656807006,-0.21582986872161666,95.885495974791496,175.30926775236273,262.64522862420068
201803220000,416.58851176139871,2.5506987590650541,9.63695837401731814E-002,0,-5.4056471787555003,0,0.87166404430623279,1,-0.30932292916061283,2,1.93280149788049721E-002,1,-23.272341886610107,17.396532392090499,-6.34036705964325792E-002,0.28109867652131754,345.88256771539704,6.24489408144244945E-002,81.208345949010734,148.47475646832393,222.44224083252942
